FW7254 Weather Reports


Display with metric or nautical units.
time (UTC)temp
F
wind
direction
speed
MPH
gust
MPH
rain 1hr
in
rain 24hr
in
rain mn
in
humidity
%
barometer
mb
20260905123313 73 22 0.0 0.0 0.00 0.00 0.69 77 1014.7
20260905121820 73 21 0.0 0.0 0.00 0.00 0.69 75 1014.5
20260905120322 73 22 0.0 0.0 0.00 0.00 0.69 74 1014.3
20260905114828 73 22 0.0 0.0 0.00 0.00 0.69 74 1014.2
20260905113333 74 22 0.0 0.0 0.00 0.00 0.69 74 1014.1
20260905111818 74 22 0.0 0.0 0.00 0.00 0.69 73 1013.9
20260905110324 74 22 0.0 0.0 0.00 0.00 0.69 74 1013.7
20260905104830 75 22 0.0 0.0 0.00 0.00 0.69 75 1013.7
20260905103335 75 21 0.0 0.0 0.00 0.00 0.69 74 1013.3
20260905101843 75 22 0.0 0.0 0.00 0.00 0.69 73 1012.8
20260905100325 75 22 0.0 0.0 0.00 0.00 0.69 73 1012.7
20260905094827 76 22 0.0 0.0 0.00 0.00 0.69 74 1012.5
20260905093351 76 22 0.0 0.0 0.00 0.00 0.69 77 1012.3
20260905091838 76 21 0.0 0.0 0.00 0.00 0.69 79 1012.2
20260905090335 76 21 0.0 0.0 0.00 0.00 0.69 80 1012.0
20260905084821 76 21 0.0 0.0 0.00 0.00 0.69 80 1011.9
20260905083345 76 22 0.0 0.0 0.00 0.00 0.69 80 1011.7
20260905081828 76 22 0.0 0.0 0.00 0.00 0.69 80 1011.7
20260905080313 76 21 0.0 0.0 0.00 0.00 0.69 80 1011.7
20260905074840 77 22 0.0 0.0 0.00 0.00 0.69 79 1011.3
20260905073323 77 21 0.0 0.0 0.00 0.00 0.69 79 1011.2
20260905071829 77 22 0.0 0.0 0.00 0.00 0.69 78 1011.1
20260905070335 77 22 0.0 0.0 0.00 0.00 0.69 78 1011.0
20260905064822 77 22 0.0 0.0 0.00 0.00 0.69 78 1011.0
20260905063327 77 22 0.0 0.0 0.00 0.00 0.69 78 1011.2
20260905061834 78 22 0.0 0.0 0.00 0.00 0.69 76 1011.2
20260905060313 78 22 0.0 0.0 0.00 0.00 0.69 78 1011.3
20260905054820 77 21 0.0 0.0 0.00 0.00 0.69 79 1011.4
20260905053325 77 22 0.0 0.0 0.00 0.00 0.69 80 1011.5
20260905051831 76 22 0.0 0.0 0.00 0.00 0.69 80 1011.4
20260905050318 76 22 0.0 0.0 0.00 0.00 0.69 81 1011.4
20260905044844 76 22 0.0 0.0 0.00 0.00 0.69 81 1011.5
20260905043321 76 22 0.0 0.0 0.00 0.00 0.69 82 1011.5
20260905041856 75 22 0.0 0.0 0.00 0.00 0.69 84 1011.6
20260905040351 74 22 0.0 0.0 0.00 0.00 0.69 85 1011.7
20260905034838 73 22 0.0 0.0 0.00 0.00 0.69 88 1011.7
20260905033320 72 22 0.0 0.0 0.00 0.00 0.69 90 1011.7
20260905031847 71 22 0.0 0.0 0.00 0.00 0.69 91 1011.8
20260905030331 71 22 0.0 0.0 0.00 0.00 0.69 92 1012.0
20260905024839 70 22 0.0 0.0 0.00 0.00 0.69 93 1012.1
20260905023321 70 21 0.0 0.0 0.00 0.00 0.69 93 1012.3
20260905021827 69 22 0.0 0.0 0.00 0.00 0.69 93 1012.2
20260905020330 69 21 0.0 0.0 0.00 0.00 0.69 93 1012.6
20260905014838 69 21 0.0 0.0 0.00 0.00 0.69 93 1012.7
20260905013323 69 22 0.0 0.0 0.00 0.00 0.69 93 1012.8
20260905011848 69 22 0.0 0.0 0.00 0.00 0.69 93 1012.9
20260905010325 69 22 0.0 0.0 0.00 0.00 0.69 93 1012.8
20260905004832 69 22 0.0 0.0 0.00 0.00 0.69 93 1012.8
20260905003318 69 21 0.0 0.0 0.00 0.00 0.69 93 1012.8
20260905001827 69 21 0.0 0.0 0.00 0.00 0.69 93 1012.5
20260905000325 69 21 0.0 0.0 0.00 0.00 0.69 93 1012.4
20260904234817 69 22 0.0 0.0 0.00 0.00 0.69 93 1012.2
20260904233322 69 22 0.0 0.0 0.00 0.00 0.69 93 1012.1
20260904231822 69 22 0.0 0.0 0.00 0.00 0.69 93 1011.9
20260904230328 69 22 0.0 0.0 0.00 0.00 0.69 93 1011.8
20260904224816 69 22 0.0 0.0 0.00 0.00 0.69 93 1011.9
20260904223315 69 22 0.0 0.0 0.00 0.00 0.69 93 1011.8
20260904221823 69 22 0.0 0.0 0.00 0.00 0.69 93 1011.6
20260904220326 69 21 0.0 0.0 0.00 0.00 0.67 93 1011.5
20260904214841 69 22 0.0 0.0 0.00 0.00 0.67 93 1011.5
20260904213317 69 22 0.0 0.0 0.00 0.00 0.67 93 1011.4
20260904211822 69 22 0.0 0.0 0.00 0.00 0.66 93 1011.2
20260904210328 69 22 0.0 0.0 0.00 0.00 0.66 93 1011.3
20260904204835 69 22 0.0 0.0 0.00 0.00 0.65 93 1011.4
20260904203313 69 22 0.0 0.0 0.00 0.00 0.63 93 1011.2
20260904201826 69 22 0.0 0.0 0.00 0.00 0.60 93 1011.1
20260904200315 69 22 0.0 0.0 0.00 0.00 0.55 93 1011.1
20260904194814 69 22 0.0 0.0 0.00 0.00 0.54 93 1010.6
20260904193322 69 22 0.0 0.0 0.00 0.00 0.52 93 1010.4
20260904191829 69 23 0.0 0.0 0.00 0.00 0.51 93 1010.2
20260904190313 69 21 0.0 0.0 0.00 0.00 0.48 93 1010.6
20260904184822 69 22 0.0 0.0 0.00 0.00 0.45 93 1011.0
20260904183328 69 22 0.0 0.0 0.00 0.00 0.39 93 1010.7
20260904181833 69 22 0.0 0.0 0.00 0.00 0.35 93 1010.9
20260904180320 69 22 0.0 0.0 0.00 0.00 0.30 93 1011.1
20260904174821 69 22 0.0 0.0 0.00 0.00 0.28 93 1010.7
20260904173326 69 22 0.0 0.0 0.00 0.00 0.25 92 1010.8
20260904171815 69 23 0.0 0.0 0.00 0.00 0.24 92 1010.4
20260904170314 69 22 0.0 0.0 0.00 0.00 0.21 92 1010.8
20260904164822 69 22 0.0 0.0 0.00 0.00 0.17 92 1011.5
20260904163328 69 22 0.0 0.0 0.00 0.00 0.12 92 1012.1
20260904161834 69 22 0.0 0.0 0.00 0.00 0.07 92 1011.2
20260904160320 69 22 0.0 0.0 0.00 0.00 0.06 92 1010.8
20260904154820 69 21 0.0 0.0 0.00 0.00 0.04 92 1011.1
20260904153327 70 22 0.0 0.0 0.00 0.00 0.03 92 1010.8
20260904151813 70 23 0.0 0.0 0.00 0.00 0.01 92 1011.1
20260904150312 70 22 0.0 0.0 0.00 0.00 0.39 92 1010.9
20260904144820 70 22 0.0 0.0 0.00 0.00 0.39 92 1010.9
20260904143347 70 22 0.0 0.0 0.00 0.00 0.38 92 1010.7
20260904141813 70 22 0.0 0.0 0.00 0.00 0.35 92 1010.8
20260904140316 70 22 0.0 0.0 0.00 0.00 0.31 92 1011.6
20260904134821 71 22 0.0 0.0 0.00 0.00 0.30 92 1011.8
20260904133327 71 22 0.0 0.0 0.00 0.00 0.28 92 1012.0
20260904131813 71 21 0.0 0.0 0.00 0.00 0.26 91 1012.4
20260904130322 71 22 0.0 0.0 0.00 0.00 0.24 91 1012.1
20260904124827 71 21 0.0 0.0 0.00 0.00 0.21 91 1012.1